Location: Jackson Park
(37.2862°N, 79.9123°W)
Time: 14:52:09
(UTC+00:00)

Vanguard 2 - Pass Details

Date: 14 May 2026
Orbit: 553 x 2894 km, 32.9° (Epoch: 6 June)

Event Time Altitude Azimuth Distance (km) Brightness Sun altitude
Rises 08:00:48 0° 246° (WSW) 6,546 - -21.9°
Reaches altitude 10° 08:05:01 10° 244° (WSW) 5,642 - -21.4°
Exits shadow 08:09:56 24° 240° (WSW) 4,623 10.9 -20.7°
Maximum altitude 08:22:33 68° 166° (SSE) 2,885 10.2 -18.9°
Drops below altitude 10° 08:36:42 10° 88° (E) 4,677 12.3 -16.8°
Sets 08:39:50 0° 86° (E) 5,418 12.8 -16.3°
